| time (UTC) | temp F | wind direction | speed MPH | gust MPH | rain 1hr in | rain 24hr in | rain mn in | humidity % | barometer mb |
| 20260504224005 | 55 | 270 | 0.0 | 0.0 | 0.00 | 0.00 | 0.00 | 85 | 1011.1 |
| 20260504223005 | 55 | 252 | 0.0 | 0.0 | 0.00 | 0.00 | 0.00 | 85 | 1011.2 |
| 20260504222005 | 55 | 269 | 0.0 | 0.0 | 0.00 | 0.00 | 0.00 | 84 | 1011.2 |
| 20260504221005 | 55 | 270 | 0.0 | 0.0 | 0.00 | 0.00 | 0.00 | 85 | 1011.1 |
| 20260504220005 | 56 | 357 | 0.0 | 0.0 | 0.00 | 0.00 | 0.00 | 81 | 1011.2 |
| 20260504215005 | 56 | 26 | 0.0 | 0.0 | 0.00 | 0.00 | 0.00 | 81 | 1011.2 |
| 20260504214005 | 56 | 71 | 0.0 | 0.0 | 0.00 | 0.00 | 0.00 | 81 | 1011.2 |
| 20260504212005 | 57 | 356 | 0.0 | 0.0 | 0.00 | 0.00 | 0.00 | 79 | 1011.1 |
| 20260504211005 | 57 | 351 | 0.0 | 0.0 | 0.00 | 0.00 | 0.00 | 78 | 1011.1 |
| 20260504205005 | 58 | 10 | 0.0 | 5.0 | 0.00 | 0.00 | 0.00 | 74 | 1010.8 |
| 20260504204005 | 58 | 38 | 1.0 | 5.0 | 0.00 | 0.00 | 0.00 | 74 | 1010.7 |
| 20260504203005 | 58 | 338 | 0.0 | 0.0 | 0.00 | 0.00 | 0.00 | 73 | 1010.6 |
| 20260504202006 | 58 | 0 | 0.0 | 6.0 | 0.00 | 0.00 | 0.00 | 72 | 1010.5 |
| 20260504201007 | 59 | 287 | 0.0 | 1.0 | 0.00 | 0.00 | 0.00 | 73 | 1010.4 |
| 20260504200005 | 59 | 279 | 0.0 | 1.0 | 0.00 | 0.00 | 0.00 | 72 | 1010.3 |
| 20260504195005 | 60 | 320 | 0.0 | 1.0 | 0.00 | 0.00 | 0.00 | 70 | 1010.2 |
| 20260504194005 | 60 | 356 | 2.0 | 6.0 | 0.00 | 0.00 | 0.00 | 68 | 1010.1 |
| 20260504191006 | 62 | 300 | 9.0 | 13.0 | 0.00 | 0.00 | 0.00 | 59 | 1009.7 |
| 20260504190005 | 64 | 338 | 9.0 | 12.0 | 0.00 | 0.00 | 0.00 | 54 | 1009.4 |
| 20260504185006 | 64 | 302 | 9.0 | 12.0 | 0.00 | 0.00 | 0.00 | 54 | 1009.5 |
| 20260504184005 | 64 | 320 | 9.0 | 14.0 | 0.00 | 0.00 | 0.00 | 54 | 1009.5 |
| 20260504183005 | 65 | 313 | 11.0 | 14.0 | 0.00 | 0.00 | 0.00 | 53 | 1009.4 |
| 20260504182005 | 66 | 324 | 13.0 | 16.0 | 0.00 | 0.00 | 0.00 | 51 | 1009.4 |
| 20260504180005 | 67 | 328 | 9.0 | 10.0 | 0.00 | 0.00 | 0.00 | 49 | 1009.4 |
| 20260504173005 | 68 | 338 | 9.0 | 14.0 | 0.00 | 0.00 | 0.00 | 46 | 1009.3 |
| 20260504082006 | 64 | 314 | 3.0 | 6.0 | 0.00 | 0.00 | 0.00 | 71 | 1009.6 |
| 20260504050005 | 53 | 202 | 0.0 | 0.0 | 0.00 | 0.00 | 0.00 | 98 | 1008.3 |
| 20260504045005 | 53 | 215 | 0.0 | 2.0 | 0.00 | 0.00 | 0.00 | 97 | 1008.3 |
| 20260504044006 | 53 | 195 | 0.0 | 3.0 | 0.00 | 0.00 | 0.00 | 97 | 1008.3 |
| 20260504043005 | 53 | 201 | 0.0 | 5.0 | 0.00 | 0.00 | 0.00 | 97 | 1008.3 |
| 20260504042006 | 53 | 200 | 1.0 | 5.0 | 0.00 | 0.00 | 0.00 | 97 | 1008.2 |
| 20260504041005 | 53 | 198 | 2.0 | 5.0 | 0.00 | 0.00 | 0.00 | 97 | 1008.2 |
| 20260504040005 | 53 | 202 | 0.0 | 5.0 | 0.00 | 0.00 | 0.00 | 97 | 1008.1 |
| 20260504035006 | 53 | 202 | 2.0 | 5.0 | 0.00 | 0.00 | 0.00 | 97 | 1008.2 |
| 20260504034005 | 53 | 186 | 1.0 | 5.0 | 0.00 | 0.00 | 0.00 | 97 | 1008.2 |
| 20260504033005 | 53 | 217 | 2.0 | 6.0 | 0.00 | 0.00 | 0.00 | 96 | 1008.2 |
| 20260504032005 | 53 | 196 | 2.0 | 5.0 | 0.00 | 0.00 | 0.00 | 96 | 1008.3 |
| 20260504031006 | 53 | 185 | 1.0 | 5.0 | 0.00 | 0.00 | 0.00 | 96 | 1008.1 |
| 20260504030005 | 53 | 180 | 2.0 | 5.0 | 0.00 | 0.00 | 0.00 | 96 | 1008.2 |
| 20260504025006 | 53 | 191 | 0.0 | 2.0 | 0.00 | 0.00 | 0.00 | 96 | 1008.3 |
| 20260504024005 | 53 | 180 | 0.0 | 2.0 | 0.00 | 0.00 | 0.00 | 97 | 1008.3 |
| 20260504023005 | 53 | 168 | 0.0 | 0.0 | 0.00 | 0.00 | 0.00 | 97 | 1008.3 |
| 20260504022005 | 53 | 132 | 1.0 | 3.0 | 0.00 | 0.00 | 0.00 | 97 | 1008.3 |
| 20260504021005 | 53 | 180 | 0.0 | 0.0 | 0.00 | 0.00 | 0.00 | 97 | 1008.4 |
| 20260504015005 | 53 | 180 | 0.0 | 1.0 | 0.00 | 0.00 | 0.00 | 97 | 1008.4 |
| 20260504013005 | 53 | 192 | 0.0 | 3.0 | 0.00 | 0.00 | 0.00 | 97 | 1008.5 |
| 20260504012005 | 53 | 225 | 0.0 | 0.0 | 0.00 | 0.00 | 0.00 | 97 | 1008.6 |
| 20260504011005 | 53 | 202 | 0.0 | 0.0 | 0.00 | 0.00 | 0.00 | 97 | 1008.6 |
| 20260504010005 | 53 | 147 | 0.0 | 0.0 | 0.00 | 0.00 | 0.00 | 96 | 1008.7 |
| 20260504005005 | 54 | 180 | 0.0 | 0.0 | 0.00 | 0.00 | 0.00 | 95 | 1008.6 |
| 20260504004005 | 54 | 170 | 0.0 | 3.0 | 0.00 | 0.00 | 0.00 | 95 | 1008.6 |
| 20260504003005 | 53 | 205 | 0.0 | 2.0 | 0.00 | 0.00 | 0.00 | 95 | 1008.7 |
| 20260504002005 | 53 | 135 | 0.0 | 0.0 | 0.00 | 0.00 | 0.00 | 94 | 1008.7 |
| 20260504001007 | 54 | 158 | 0.0 | 0.0 | 0.00 | 0.00 | 0.00 | 94 | 1008.7 |
| 20260504000005 | 54 | 158 | 0.0 | 0.0 | 0.00 | 0.00 | 0.00 | 94 | 1008.8 |
| 20260503235005 | 54 | 88 | 0.0 | 0.0 | 0.00 | 0.00 | 0.00 | 92 | 1008.8 |
| 20260503234005 | 55 | 158 | 0.0 | 0.0 | 0.00 | 0.00 | 0.00 | 91 | 1008.8 |
| 20260503233005 | 55 | 158 | 0.0 | 0.0 | 0.00 | 0.00 | 0.00 | 92 | 1008.7 |
| 20260503232007 | 55 | 112 | 0.0 | 0.0 | 0.00 | 0.00 | 0.00 | 90 | 1008.7 |
| 20260503231006 | 55 | 158 | 0.0 | 0.0 | 0.00 | 0.00 | 0.00 | 91 | 1008.8 |
| 20260503230006 | 55 | 112 | 0.0 | 0.0 | 0.00 | 0.00 | 0.00 | 90 | 1008.7 |
| 20260503225006 | 55 | 112 | 0.0 | 0.0 | 0.00 | 0.00 | 0.00 | 90 | 1008.8 |